sat.trackr.live / text

‹ back to catalog

KUIPER-00076

NORAD 64823 · 2025-151H

PAYLOAD ACTIVE UNKNOWN

§ Identity

Operator
Country
US
Launch date
2025-07-16
Launch site
AFETR
Launch vehicle
Mass (kg)
RCS (m²)

External: N2YO · Heavens-Above · Gunter

§ Orbital elements

Epoch: 2026-05-24T17:44:29.477184Z

Period
97.30 min
Inclination
51.9015°
Eccentricity
0.0001041
Mean motion
14.79944853 rev/d
Perigee alt
628.8 km
Apogee alt
630.2 km
Semi-major
7,007.6 km
B*
7.6102e-5
RAAN
316.8026°
Arg perigee
136.1594°
Mean anomaly
223.9451°
Rev number
4,667

§ Raw data

KUIPER-000761 64823U 25151H   26144.73923006  .00000359  00000+0  76102-4 0  99902 64823  51.9015 316.8026 0001041 136.1594 223.9451 14.79944853 46670

JSON: /api/v1/satellites/64823 · /tle

For live sub-satellite position, see the globe view (requires WebGL).

§ Visibility from observer

Set your observer location to see the next 7 days of passes ≥ 10°. The values pass through the URL so the page stays shareable.

No JS? Fill the form by hand. The geolocation button needs JavaScript.